Location: Raitis
(47.2167°N, 11.3833°E)
Time: 17:49:34
(UTC+00:00)

BREEZE-M DEB (TANK) - Pass Details

Date: 03 March 2021
Orbit: 308 x 15402 km, 49.5° (Epoch: 20 April)

Event Time Altitude Azimuth Distance (km) Brightness Sun altitude
Rises 19:33:01 0° 286° (WNW) 2,201 6.7 -26.0°
Reaches altitude 10° 19:34:22 10° 288° (WNW) 1,543 5.6 -26.2°
Enters shadow 19:36:49 65° 316° (NW) 698 2.9 -26.6°
